Regional Weather Roundup
Issued by NWS

Home | Current Version | Previous Version | Text Only | Print | Product List | Glossary On
Versions: 1 2 3 4 5 6 7 8 9 10 11 12 13 14 15 16 17 18 19 20 21 22 23 24 25 26 27 28 29 30 31 32 33 34 35 36 37 38 39 40 41 42 43 44 45 46 47 48 49 50
577
ASUS45 KBOU 220210
RWRCO

WEATHER ROUNDUP FOR COLORADO
NATIONAL WEATHER SERVICE DENVER/BOULDER CO
700 PM MST TUE NOV 21 2017

NOTE: "FAIR" INDICATES FEW OR NO CLOUDS BELOW 12000 FEET WITH NO
SIGNIFICANT WEATHER AND/OR OBSTRUCTIONS TO VISIBILITY.

COZ001>005-013-030-031-220300-
...NORTHWEST COLORADO...

CITY           SKY/WX    TMP DP  RH WIND       PRES   REMARKS
CRAIG          MOCLDY    34  30  85 W3        30.39R
HAYDEN         MOCLDY    40  32  73 CALM      30.41R
MEEKER         FAIR      37  33  85 NE5       30.39R
RABBIT EARS PA FOG       30  30 100 W12G21    30.45R VSB 1/2 WCI  21
STEAMBOAT SPGS CLOUDY    37  35  90 CALM      30.40R
WALDEN         FAIR      34  27  75 SW7       30.40R WCI  28
$$

COZ006>008-011-220300-
...WEST CENTRAL VALLEYS...

CITY           SKY/WX    TMP DP  RH WIND       PRES   REMARKS
GRAND JUNCTION FAIR      42  20  41 NE5       30.36R
MONTROSE       FAIR      40  27  59 SE3       30.41R
EAGLE          FAIR      36  30  79 SE7       30.43R
RIFLE          FAIR      38  33  82 S3        30.40R
DELTA          FAIR      43  23  44 NE3       30.38R
NUCLA          FAIR      50  28  43 N3        30.40R
$$

COZ017>023-064>068-220300-
...SOUTHWEST COLORADO...

CITY           SKY/WX    TMP DP  RH WIND       PRES   REMARKS
DURANGO        FAIR      39  21  48 NE7       30.33R
CORTEZ         FAIR      49  30  48 CALM      30.36R
PAGOSA SPRINGS FAIR      39  20  47 CALM      30.37R
TELLURIDE      FAIR      40  26  57 W7        30.48R
WOLF CREEK PAS FAIR      30  12  47 W6        30.56R WCI  24
$$

COZ009-010-012-014-032>034-037-058>063-220300-
...CENTRAL COLORADO...

CITY           SKY/WX    TMP DP  RH WIND       PRES   REMARKS
ASPEN          CLOUDY    36  30  79 S5        30.43R
BUENA VISTA    FAIR      40  24  51 NW9       30.38R
COPPER MTN     CLOUDY    28  23  80 MISG      30.49R
BERTHOUD PASS  CLOUDY    19   9  63 N33G45    30.42R WCI   0
COTTONWOOD PAS FAIR      41  27  56 W14G23    30.41R
GUNNISON       FAIR      35  26  69 N5        30.41R WCI  31
KREMMLING      CLOUDY    41  34  75 CALM      30.42R
LEADVILLE      FAIR      25  19  78 N5        30.44R WCI  19
MONARCH PASS   FAIR      27  19  74 W23       30.58R WCI  12
SALIDA         FAIR      39  32  75 SE7       30.44R
SUNLIGHT       MOCLDY    28  27  93 MISG      30.54R
WILKERSON PASS FAIR      28  18  64 W8        30.44S WCI  20
$$

COZ069>075-220300-
...SAN LUIS VALLEY/SANGRE DE CRISTO MOUNTAINS...

CITY           SKY/WX    TMP DP  RH WIND       PRES   REMARKS
ALAMOSA        FAIR      42  22  44 NW15      30.33R
DEL NORTE      FAIR      42  20  42 W6        30.38R
LA VETA PASS   FAIR      32  23  69 SW13G20     N/A  WCI  22
SAGUACHE       FAIR      41  25  52 NW15      30.37S
$$

COZ035-036-038>040-220300-
...NORTHERN COLORADO FRONT RANGE...

CITY           SKY/WX    TMP DP  RH WIND       PRES   REMARKS
DENVER INTL AP FAIR      32  27  81 S12       30.29S WCI  23
DMNS CITY PARK   N/A     39  30  70 E9        30.28S
AURORA         PTCLDY    35  31  84 SE10      30.28F WCI  28
FRONT RANGE AP PTCLDY    36  32  87 S7        30.30S
ERIE MUNI ARPT FAIR      32  29  90 CALM      30.34F
BOULDER MUN AP FAIR      37  34  87 CALM      30.28F
CENTENNIAL     FAIR      36  31  82 S8        30.28F
BROOMFIELD     NOT AVBL
FORT COLLINS   FAIR      37  33  85 CALM      30.29F
LONGMONT       FAIR      35  30  82 NW6       30.31S WCI  30
$$

COZ041-046-047-076>085-087-088-220300-
...PIKES PEAK/PALMER DIVIDE AND SOUTHERN FOOTHILLS...

CITY           SKY/WX    TMP DP  RH WIND       PRES   REMARKS
COLO. SPRINGS  MOCLDY    38  31  76 SE8       30.35R
A. F. ACADEMY  FAIR      36  30  79 S6        30.34R
SCHRIEVER AFB  FAIR      35  28  78 S3        30.36R
CHEYENNE MTN   FAIR      37  32  79 S6        30.29R
ELLICOTT         N/A    N/A N/A N/A S8        30.34S
FALCON         FAIR      33  29  86 S6        30.36S WCI  28
FORT CARSON    FAIR      38  31  75 S8        30.33S
LIMON          FAIR      22  20  92 CALM      30.33F
MONUMENT HILL  FAIR      32  30  93 S13       30.33S WCI  22
CANON CITY     FAIR      39  32  75 N6        30.34S
WALSENBURG     MOCLDY    37  34  87 S3        30.35S
TRINIDAD       FAIR      40  32  73 E3        30.36R
$$

COZ042>045-048>051-090-091-220300-
...NORTHEAST COLORADO...

CITY           SKY/WX    TMP DP  RH WIND       PRES   REMARKS
GREELEY ARPT   FAIR      31  27  85 N6        30.30F WCI  25
AKRON          FAIR      32  24  72 S7        30.29F WCI  26
BURLINGTON     FAIR      28  22  78 S7        30.35R WCI  21
WRAY           NOT AVBL
YUMA           FAIR      28  23  80 S8        30.30F WCI  20
STERLING       FAIR      32  27  80 S5        30.28S WCI  27
HOLYOKE        FAIR      32  23  69 S6        30.31S WCI  26
FORT MORGAN    FAIR      35  24  64 W3        30.30S
$$

COZ086-089-092>099-220300-
...SOUTHEAST COLORADO...

CITY           SKY/WX    TMP DP  RH WIND       PRES   REMARKS
PUEBLO         CLOUDY    43  31  62 E6        30.34R
LA JUNTA       FAIR      40  26  57 SE7       30.35R
LAMAR          FAIR      36  25  64 SE9       30.35R
SPRINGFIELD      N/A     28  22  78 CALM      30.36R
$$




USA.gov is the U.S. government's official web portal to all federal, state and local government web resources and services.